Tracking 28794 objects as of 19-Apr-2024
HD Live streaming from Space Station
objects crossing your sky now

BREEZE-M DEB

Track BREEZE-M DEB now!
10-day predictions


NORAD ID: 32030
Int'l Code: 2006-006H
Perigee: 379.8 km
Apogee: 12,988.9 km
Inclination: 51.8 °
Period: 247.4 minutes
Semi major axis: 13055 km
RCS: 0.5822 m2 (medium)
Launch date: February 28, 2006
Source: Commonwealth of Independent States (former USSR) (CIS)
Launch site: TYURATAM MISSILE AND SPACE COMPLEX (TTMTR)

Note: This is SATELLITE DEBRIS
Your satellite tracking list
Your tracking list is empty




NASA's NSSDC Master Catalog

Two Line Element Set (TLE):
1 32030U 06006H   24109.94481004  .00011778  00000-0  47070-2 0  9990
2 32030  51.7699 318.8910 4829123 250.7677  52.3188  5.81996228344301
Source of the keplerian elements: AFSPC